Tracking 23764 objects as of 18-Oct-2021
HD Live streaming from Space Station
objects crossing your sky now

OBJECT H

Track OBJECT H now!
10-day predictions


NORAD ID: 42832
Int'l Code: 2017-042H
Perigee: 589.4 km
Apogee: 610.8 km
Inclination: 97.5 °
Period: 96.5 minutes
Semi major axis: 6971 km
RCS: Unknown
Launch date: July 14, 2017
Source: (TBD)
Launch site: TYURATAM MISSILE AND SPACE COMPLEX (TTMTR)
aabbcc
Your satellite tracking list
Your tracking list is empty




NASA's NSSDC Master Catalog

Two Line Element Set (TLE):
1 42832U 17042H   21290.57756226  .00000592  00000-0  64075-4 0  9999
2 42832  97.4511 154.1338 0015307  95.7226 264.5740 14.91595814231911
Source of the keplerian elements: AFSPC